TRA731Q EHAM-LEZL

Flight info

Callsign TRA731Q
Flight time N/A
Altitude 23000
Route KUDAD2Z WOODY N872 CIV/N0444F350 N872 MEDIL DCT KOVIN DCT DUCRA DCT RESMI DCT DEKOD DCT DISAK DCT ARKIP DCT ARNAV DCT LMG DCT UVELI DCT OSMOB DCT ARVID DCT PPN DCT NOLSA DCT ALEPO DCT VASUM DCT BANEV DCT BAN DCT GOTOR DCT KAMPO DCT MONTO DCT MOLIN DCT HIJ HIJ4E
Aircraft A21N/M-SDE2E3FGHIJ1RWXY/LB1

Departure

Time N/A
Airport Amsterdam Airport Schiphol (EHAM)

Arrival

Time 2026-05-07 18:22
Airport Seville Airport (LEZL)
Time Latitude Longitude Altitude Speed Heading
2026-05-07 17:06 44.25033 -0.63019 34902 ft 410 kts 208°
2026-05-07 17:06 44.22500 -0.64860 34904 ft 410 kts 208°
2026-05-07 17:06 44.17435 -0.68537 34904 ft 410 kts 208°
2026-05-07 17:07 44.12393 -0.72179 34908 ft 411 kts 208°
2026-05-07 17:07 44.07309 -0.75854 34913 ft 411 kts 208°
2026-05-07 17:08 44.02227 -0.79525 34908 ft 411 kts 208°
2026-05-07 17:08 43.97134 -0.83189 34904 ft 412 kts 208°
2026-05-07 17:09 43.92060 -0.86833 34900 ft 413 kts 208°
2026-05-07 17:09 43.86953 -0.90497 34900 ft 413 kts 208°
2026-05-07 17:10 43.81837 -0.94148 34894 ft 413 kts 208°
2026-05-07 17:10 43.76717 -0.97797 34898 ft 414 kts 208°
2026-05-07 17:11 43.71624 -1.01429 34901 ft 414 kts 208°
2026-05-07 17:11 43.66506 -1.05075 34907 ft 415 kts 208°
2026-05-07 17:12 43.61366 -1.08726 34907 ft 415 kts 208°
2026-05-07 17:12 43.56214 -1.12366 34893 ft 415 kts 207°
2026-05-07 17:13 43.51097 -1.15977 34913 ft 415 kts 208°
2026-05-07 17:13 43.45957 -1.19609 34906 ft 415 kts 208°
2026-05-07 17:14 43.40807 -1.23248 34899 ft 415 kts 208°
2026-05-07 17:14 43.35644 -1.26875 34901 ft 416 kts 208°
2026-05-07 17:15 43.30507 -1.30472 34910 ft 416 kts 208°
2026-05-07 17:15 43.25343 -1.34099 34914 ft 417 kts 208°
2026-05-07 17:16 43.20176 -1.37711 34904 ft 417 kts 208°
2026-05-07 17:16 43.15007 -1.41318 34912 ft 417 kts 208°
2026-05-07 17:17 43.09860 -1.44903 34914 ft 417 kts 208°
2026-05-07 17:17 43.04676 -1.48499 34918 ft 417 kts 208°
2026-05-07 17:18 42.99502 -1.52102 34907 ft 417 kts 208°
2026-05-07 17:18 42.94318 -1.55711 34927 ft 418 kts 208°
2026-05-07 17:19 42.89161 -1.59300 34925 ft 418 kts 208°
2026-05-07 17:19 42.83973 -1.62888 34916 ft 418 kts 208°
2026-05-07 17:20 42.78778 -1.66458 34918 ft 418 kts 208°
2026-05-07 17:20 42.73589 -1.70036 34917 ft 418 kts 208°
2026-05-07 17:21 42.68391 -1.73587 34916 ft 418 kts 208°
2026-05-07 17:21 42.63203 -1.77065 34915 ft 418 kts 208°
2026-05-07 17:22 42.57978 -1.80556 34906 ft 418 kts 208°
2026-05-07 17:22 42.52761 -1.84049 34907 ft 418 kts 208°
2026-05-07 17:23 42.47543 -1.87546 34907 ft 418 kts 208°
2026-05-07 17:23 42.42358 -1.91010 34915 ft 418 kts 208°
2026-05-07 17:24 42.37125 -1.94491 34898 ft 419 kts 208°
2026-05-07 17:24 42.31873 -1.97983 34894 ft 420 kts 208°
2026-05-07 17:25 42.26642 -2.01467 34899 ft 421 kts 208°
2026-05-07 17:25 42.21368 -2.04969 34904 ft 422 kts 208°
2026-05-07 17:26 42.16086 -2.08460 34902 ft 422 kts 208°
2026-05-07 17:26 42.10798 -2.11951 34905 ft 423 kts 208°
2026-05-07 17:27 42.05544 -2.15414 34915 ft 423 kts 208°
2026-05-07 17:27 42.00256 -2.18893 34923 ft 423 kts 208°
2026-05-07 17:28 41.94962 -2.22359 34911 ft 422 kts 209°
2026-05-07 17:28 41.89703 -2.25802 34915 ft 423 kts 209°
2026-05-07 17:29 41.84401 -2.29277 34923 ft 423 kts 210°
2026-05-07 17:29 41.79103 -2.32742 34919 ft 424 kts 210°
2026-05-07 17:30 41.73807 -2.36184 34911 ft 425 kts 210°
2026-05-07 17:30 41.68475 -2.39649 34919 ft 426 kts 210°
2026-05-07 17:31 41.63168 -2.43093 34922 ft 426 kts 210°
2026-05-07 17:31 41.57812 -2.46563 34925 ft 427 kts 210°
2026-05-07 17:32 41.52488 -2.50004 34907 ft 427 kts 210°
2026-05-07 17:32 41.48000 -2.52904 34912 ft 427 kts 210°
2026-05-07 17:33 41.41784 -2.56912 34921 ft 428 kts 210°
2026-05-07 17:33 41.36401 -2.60375 34920 ft 429 kts 210°
2026-05-07 17:34 41.31140 -2.64072 34905 ft 424 kts 219°
2026-05-07 17:34 41.26297 -2.68543 34903 ft 423 kts 220°
2026-05-07 17:35 41.21487 -2.72983 34912 ft 424 kts 220°
2026-05-07 17:35 41.16633 -2.77447 34916 ft 424 kts 220°
2026-05-07 17:36 41.11774 -2.81901 34927 ft 424 kts 220°
2026-05-07 17:36 41.06906 -2.86352 34919 ft 424 kts 220°
2026-05-07 17:37 41.02034 -2.90798 34929 ft 425 kts 220°
2026-05-07 17:37 40.97169 -2.95241 34934 ft 425 kts 220°
2026-05-07 17:38 40.92325 -2.99659 34939 ft 425 kts 220°
2026-05-07 17:38 40.87445 -3.04084 34944 ft 425 kts 220°
2026-05-07 17:39 40.82564 -3.08502 34931 ft 425 kts 222°
2026-05-07 17:39 40.77687 -3.12918 34940 ft 424 kts 222°
2026-05-07 17:40 40.72843 -3.17304 34948 ft 424 kts 222°
2026-05-07 17:40 40.67978 -3.21690 34941 ft 423 kts 222°
2026-05-07 17:41 40.63112 -3.26073 34936 ft 423 kts 222°
2026-05-07 17:41 40.58243 -3.30454 34932 ft 423 kts 222°
2026-05-07 17:42 40.53379 -3.34819 34928 ft 423 kts 222°
2026-05-07 17:42 40.48539 -3.39144 34925 ft 423 kts 221°
2026-05-07 17:43 40.43667 -3.43488 34887 ft 423 kts 222°
2026-05-07 17:43 40.38804 -3.47826 34887 ft 421 kts 223°
2026-05-07 17:44 40.34789 -3.51409 34937 ft 420 kts 223°
2026-05-07 17:44 40.29158 -3.56426 34921 ft 420 kts 223°
2026-05-07 17:45 40.25137 -3.59997 34924 ft 420 kts 223°
2026-05-07 17:45 40.20302 -3.64282 34925 ft 419 kts 223°
2026-05-07 17:46 40.15467 -3.68569 34919 ft 418 kts 223°
2026-05-07 17:46 40.10705 -3.72776 34923 ft 418 kts 223°
2026-05-07 17:47 40.05880 -3.77020 34919 ft 417 kts 223°
2026-05-07 17:47 40.01062 -3.81258 34917 ft 417 kts 223°
2026-05-07 17:48 39.96250 -3.85481 34878 ft 416 kts 223°
2026-05-07 17:48 39.91492 -3.89661 34900 ft 414 kts 223°
2026-05-07 17:49 39.86715 -3.93852 34903 ft 413 kts 223°
2026-05-07 17:49 39.81950 -3.98021 34905 ft 412 kts 223°
2026-05-07 17:50 39.77184 -4.02170 34897 ft 411 kts 223°
2026-05-07 17:50 39.72455 -4.06286 34870 ft 411 kts 223°
2026-05-07 17:51 39.67693 -4.10435 34877 ft 410 kts 223°
2026-05-07 17:51 39.62938 -4.14563 34876 ft 410 kts 223°
2026-05-07 17:52 39.58216 -4.18651 34878 ft 410 kts 223°
2026-05-07 17:52 39.53473 -4.22765 34873 ft 410 kts 223°
2026-05-07 17:53 39.48723 -4.26880 34848 ft 410 kts 222°
2026-05-07 17:53 39.44006 -4.30941 34860 ft 409 kts 222°
2026-05-07 17:54 39.39264 -4.35022 34867 ft 409 kts 222°
2026-05-07 17:54 39.34526 -4.39100 34869 ft 408 kts 222°
2026-05-07 17:55 39.29783 -4.43171 34865 ft 408 kts 222°
2026-05-07 17:55 39.25040 -4.47230 34852 ft 408 kts 222°
2026-05-07 17:56 39.20331 -4.51251 34857 ft 408 kts 222°
2026-05-07 17:56 39.15592 -4.55296 34866 ft 408 kts 222°
2026-05-07 17:57 39.11656 -4.58649 34858 ft 407 kts 221°
2026-05-07 17:57 39.06154 -4.63338 34870 ft 407 kts 221°
2026-05-07 17:58 39.01430 -4.67354 34836 ft 406 kts 221°
2026-05-07 17:58 38.96739 -4.71330 34855 ft 405 kts 221°
2026-05-07 17:59 38.92025 -4.75325 34860 ft 405 kts 221°
2026-05-07 17:59 38.87313 -4.79315 34813 ft 405 kts 221°
2026-05-07 18:00 38.84977 -4.81294 33902 ft 414 kts 221°
2026-05-07 18:00 38.82553 -4.83349 33061 ft 417 kts 221°
2026-05-07 18:00 38.80140 -4.85379 32636 ft 411 kts 221°
2026-05-07 18:00 38.77755 -4.87378 32107 ft 407 kts 220°
2026-05-07 18:01 38.75390 -4.89359 31611 ft 403 kts 220°
2026-05-07 18:01 38.73048 -4.91322 31107 ft 400 kts 220°
2026-05-07 18:01 38.70760 -4.93245 30621 ft 396 kts 220°
2026-05-07 18:01 38.68461 -4.95176 30132 ft 394 kts 220°
2026-05-07 18:02 38.63915 -4.98996 29121 ft 386 kts 219°
2026-05-07 18:02 38.61672 -5.00878 28663 ft 382 kts 219°
2026-05-07 18:02 38.59463 -5.02728 28184 ft 377 kts 219°
2026-05-07 18:03 38.57279 -5.04554 27737 ft 373 kts 219°
2026-05-07 18:03 38.55110 -5.06365 27284 ft 369 kts 219°
2026-05-07 18:03 38.53000 -5.08129 26823 ft 365 kts 219°
2026-05-07 18:03 38.50806 -5.09778 26353 ft 367 kts 211°
2026-05-07 18:04 38.48396 -5.10919 25884 ft 370 kts 203°
2026-05-07 18:04 38.45940 -5.11874 25426 ft 368 kts 203°
2026-05-07 18:04 38.43498 -5.12827 24969 ft 366 kts 203°
2026-05-07 18:04 38.41066 -5.13777 24510 ft 364 kts 203°
2026-05-07 18:05 38.38653 -5.14723 24075 ft 362 kts 203°
2026-05-07 18:05 38.36244 -5.15670 23622 ft 361 kts 203°
2026-05-07 18:05 38.33873 -5.16604 23140 ft 360 kts 202°
2026-05-07 18:05 38.31489 -5.17537 22671 ft 357 kts 202°
2026-05-07 18:06 38.29122 -5.18459 22227 ft 354 kts 202°
2026-05-07 18:06 38.26766 -5.19373 21772 ft 352 kts 202°
2026-05-07 18:06 38.24430 -5.20281 21320 ft 350 kts 202°
2026-05-07 18:06 38.22107 -5.21187 20869 ft 348 kts 202°
2026-05-07 18:07 38.19798 -5.22092 20410 ft 347 kts 202°
2026-05-07 18:07 38.17494 -5.22994 19952 ft 346 kts 202°
2026-05-07 18:07 38.15197 -5.23888 19504 ft 345 kts 201°
2026-05-07 18:07 38.12902 -5.24777 19036 ft 345 kts 201°
2026-05-07 18:08 38.10639 -5.25654 18605 ft 344 kts 201°
2026-05-07 18:08 38.08341 -5.26545 18151 ft 344 kts 201°
2026-05-07 18:08 38.06053 -5.27437 17649 ft 342 kts 201°
2026-05-07 18:08 38.03782 -5.28323 17207 ft 340 kts 201°
2026-05-07 18:09 38.01531 -5.29198 16777 ft 338 kts 200°
2026-05-07 18:09 37.99285 -5.30068 16346 ft 336 kts 200°
2026-05-07 18:09 37.97051 -5.30930 15911 ft 334 kts 200°
2026-05-07 18:09 37.94828 -5.31787 15490 ft 333 kts 199°
2026-05-07 18:10 37.92645 -5.32629 15069 ft 331 kts 199°
2026-05-07 18:10 37.90443 -5.33481 14657 ft 330 kts 198°
2026-05-07 18:10 37.88252 -5.34327 14233 ft 328 kts 199°
2026-05-07 18:10 37.86070 -5.35167 13811 ft 327 kts 198°
2026-05-07 18:11 37.83894 -5.36003 13348 ft 326 kts 198°
2026-05-07 18:11 37.82463 -5.36554 13058 ft 324 kts 198°
2026-05-07 18:11 37.79593 -5.37662 12512 ft 320 kts 198°
2026-05-07 18:11 37.77494 -5.38568 12095 ft 316 kts 205°
2026-05-07 18:12 37.75615 -5.39984 11679 ft 313 kts 218°
2026-05-07 18:12 37.73997 -5.41771 11274 ft 312 kts 222°
2026-05-07 18:12 37.72384 -5.43593 10860 ft 310 kts 222°
2026-05-07 18:12 37.70775 -5.45402 10451 ft 309 kts 221°
2026-05-07 18:13 37.69173 -5.47199 10101 ft 305 kts 221°
2026-05-07 18:13 37.67613 -5.48946 9977 ft 294 kts 221°
2026-05-07 18:13 37.66093 -5.50649 9713 ft 289 kts 221°
2026-05-07 18:13 37.64620 -5.52303 9488 ft 286 kts 222°
2026-05-07 18:14 37.63133 -5.53995 9014 ft 288 kts 222°
2026-05-07 18:14 37.61658 -5.55685 8702 ft 283 kts 222°
2026-05-07 18:14 37.60191 -5.57370 8170 ft 286 kts 222°
2026-05-07 18:14 37.58726 -5.59052 7832 ft 282 kts 222°
2026-05-07 18:15 37.57297 -5.60690 7473 ft 280 kts 221°
2026-05-07 18:15 37.55856 -5.62335 7125 ft 277 kts 221°
2026-05-07 18:15 37.54373 -5.63863 6778 ft 272 kts 207°
2026-05-07 18:15 37.52562 -5.64358 6447 ft 268 kts 173°
2026-05-07 18:16 37.50897 -5.63524 6096 ft 259 kts 146°
2026-05-07 18:16 37.49471 -5.62178 5733 ft 252 kts 145°
2026-05-07 18:16 37.48024 -5.60988 5381 ft 243 kts 154°
2026-05-07 18:16 37.46496 -5.60160 5038 ft 234 kts 165°
2026-05-07 18:17 37.44950 -5.59747 4767 ft 222 kts 182°
2026-05-07 18:17 37.43503 -5.60184 4461 ft 211 kts 210°
2026-05-07 18:17 37.42422 -5.61365 4103 ft 205 kts 235°
2026-05-07 18:17 37.41890 -5.62971 3856 ft 201 kts 259°
2026-05-07 18:18 37.41838 -5.64716 3616 ft 197 kts 267°
2026-05-07 18:18 37.41841 -5.66401 3362 ft 187 kts 267°
2026-05-07 18:18 37.41840 -5.68000 3102 ft 178 kts 266°
2026-05-07 18:18 37.41833 -5.69559 2842 ft 177 kts 266°
2026-05-07 18:19 37.41836 -5.71082 2626 ft 173 kts 266°
2026-05-07 18:19 37.41831 -5.72600 2396 ft 174 kts 265°
2026-05-07 18:19 37.41829 -5.74108 2163 ft 169 kts 266°
2026-05-07 18:19 37.41834 -5.75524 2015 ft 155 kts 266°
2026-05-07 18:20 37.41833 -5.76795 1859 ft 142 kts 265°
2026-05-07 18:20 37.41819 -5.78019 1646 ft 138 kts 264°
2026-05-07 18:20 37.41822 -5.79222 1421 ft 137 kts 265°
2026-05-07 18:20 37.41820 -5.80447 1192 ft 138 kts 265°
2026-05-07 18:21 37.41814 -5.81651 983 ft 137 kts 266°
2026-05-07 18:21 37.41813 -5.82841 815 ft 135 kts 263°
2026-05-07 18:21 37.41809 -5.84018 677 ft 135 kts 262°
2026-05-07 18:21 37.41800 -5.85215 490 ft 141 kts 268°
2026-05-07 18:22 37.41803 -5.86436 303 ft 140 kts 266°
2026-05-07 18:22 37.41806 -5.87244 205 ft 138 kts 266°
2026-05-07 18:22 37.41793 -5.88740 104 ft 102 kts 269°
2026-05-07 18:22 37.41793 -5.89307 100 ft 40 kts 269°
2026-05-07 18:23 37.41794 -5.89577 98 ft 28 kts 271°
2026-05-07 18:23 37.41828 -5.89772 98 ft 17 kts 311°
2026-05-07 18:23 37.41925 -5.89846 97 ft 16 kts 336°
2026-05-07 18:23 37.42014 -5.89893 96 ft 13 kts 337°
2026-05-07 18:24 37.42090 -5.89930 95 ft 11 kts 349°
2026-05-07 18:24 37.42154 -5.89896 94 ft 10 kts 44°
2026-05-07 18:24 37.42201 -5.89838 94 ft 9 kts 45°
2026-05-07 18:24 37.42237 -5.89794 94 ft 4 kts 45°
2026-05-07 18:25 37.42257 -5.89785 94 ft 5 kts 357°
2026-05-07 18:25 37.42270 -5.89800 95 ft 2 kts 314°
2026-05-07 18:25 37.42280 -5.89813 94 ft 4 kts 314°
2026-05-07 18:25 37.42300 -5.89839 95 ft 0 kts 314°